Regional Weather Roundup
Issued by NWS

Home | Current Version | Previous Version | Text Only | Print | Product List | Glossary On
Versions: 1 2 3 4 5 6 7 8 9 10 11 12 13 14 15 16 17 18 19 20 21 22 23 24 25 26 27 28 29 30 31 32 33 34 35 36 37 38 39 40 41 42 43 44 45 46 47 48 49 50
955
ASUS43 KDMX 220706
RWRIA

WEATHER ROUNDUP FOR IOWA
NATIONAL WEATHER SERVICE DES MOINES IA
200 AM CDT THU AUG 22 2019

NOTE: "FAIR" INDICATES FEW OR NO CLOUDS BELOW 12,000 FEET WITH NO
SIGNIFICANT WEATHER AND/OR OBSTRUCTIONS TO VISIBILITY.

* - THESE STATIONS ARE NOT NWS STATIONS...THUS NOT UNDER NWS
QUALITY CONTROL.  THEY ALSO DO NOT REPORT WEATHER SUCH
AS PRECIPITATION OR FOG.

IAZ001>003-012>014-020>022-031>034-043>046-220800-
   NORTHWEST IOWA

CITY           SKY/WX    TMP DP  RH WIND       PRES   REMARKS
CARROLL *      CLEAR     55  55 100 CALM      30.05F
CHEROKEE *     PTCLDY    56  56 100 CALM      30.08F FOG
DENISON *      CLEAR     57  57 100 CALM      30.08F FOG
LE MARS *      CLEAR     59  57  94 CALM      30.08F
SHELDON *      CLEAR     52  52 100 CALM      30.07F
SIOUX CITY     CLEAR     59  59 100 E3        30.07F
SPENCER        CLEAR     54  52  93 CALM      30.09S
STORM LAKE *   CLEAR     57  55  94 S3        30.05F
$$

IAZ055>058-069>071-079>083-090>094-220800-
   SOUTHWEST IOWA

CITY           SKY/WX    TMP DP  RH WIND       PRES   REMARKS
ATLANTIC *     CLEAR     63  63 100 NE3       30.04F
AUDUBON *      CLEAR     57  55  94 CALM      30.07F
CLARINDA *     CLEAR     66  66 100 NE5       30.05F
COUNCIL BLFS * CLEAR     63  63 100 NE5       30.04S
CRESTON *      CLEAR     63  63 100 NE8       30.05S
HARLAN  *      CLEAR     61  61 100 N5        30.05F
LAMONI         MOCLDY    68  66  93 NE7       30.02F
RED OAK *      CLEAR     64  63  94 CALM      30.04F
SHENANDOAH *   CLEAR     64  64 100 NE5       30.03F
$$

IAZ047>049-059>061-072>074-084-220800-
   CENTRAL IOWA

CITY           SKY/WX    TMP DP  RH WIND       PRES   REMARKS
ANKENY *       CLEAR     61  61 100 N5        30.05F
BOONE *        CLEAR     59  59 100 N5        30.05F
CHARITON *     CLOUDY    64  64 100 N7        30.03F
DES MOINES     PTCLDY    64  61  90 N5        30.04F
GRINNELL*      CLEAR     61  60  95 CALM      30.05F
KNOXVILLE *    CLEAR     66  64  94 N6        30.04S
MARSHALLTOWN   CLEAR     59  59 100 N6        30.04F
NEWTON *       CLEAR     63  63 100 N6        30.04F
PELLA *        CLEAR     64  62  93 N3        30.06S
PERRY *        FAIR      58  58  99 N3        30.06F FOG
$$

IAZ004>006-015-016-023>025-035-036-220800-
   NORTH CENTRAL IOWA

CITY           SKY/WX    TMP DP  RH WIND       PRES   REMARKS
ALGONA *       CLEAR     55  55 100 SW5       30.07S
CLARION *      CLEAR     55  55 100 CALM      30.07F
ESTHERVILLE    CLEAR     53  52  96 NW3       30.07F
FORT DODGE *   CLEAR     55  55 100 CALM      30.07F FOG
MASON CITY     CLEAR     53  51  93 CALM      30.08F
FOREST CITY *    N/A     52  52 100 CALM      30.07F FOG
IOWA FALLS *     N/A     57  53  85 CALM      30.07F
$$

IAZ007>011-017>019-026>030-037>042-050>054-066-220800-
   NORTHEAST IOWA

CITY           SKY/WX    TMP DP  RH WIND       PRES   REMARKS
CEDAR RAPIDS     N/A     63  62  97 N5        30.02F
CHARLES CITY * FAIR      55  55 100 CALM      30.07S FOG
CLINTON *      FAIR      65  63  93 N8        30.01F
DECORAH *      FAIR      57  57 100 CALM      30.05F
DUBUQUE        FAIR      62  57  83 N5        30.04F
OELWEIN *      CLEAR     57  57 100 N6        30.06F
WATERLOO       FAIR      60  57  89 CALM      30.05F
$$

IAZ064-065-067-068-078-220800-
   EAST CENTRAL IOWA

CITY           SKY/WX    TMP DP  RH WIND       PRES   REMARKS
DAVENPORT      MOCLDY    67  60  78 N8        30.02F
IOWA CITY      FAIR      69  58  67 N6        30.03F
MT. PLEASANT * CLOUDY    68  68 100 N6        30.01F
MUSCATINE *    CLOUDY    68  61  77 CALM      30.01F
QUAD CITIES    MOCLDY    71  60  68 N5        30.00F
$$

IAZ062-063-075>077-085>089-095>099-220800-
   SOUTHEAST IOWA

CITY           SKY/WX    TMP DP  RH WIND       PRES   REMARKS
BURLINGTON     MOCLDY    70  66  87 N6        30.00F
FAIRFIELD *    CLOUDY    66  64  94 NE3       30.01F
FORT MADISON * CLOUDY    70  70 100 N5        30.01F
KEOKUK *       CLOUDY    70  70 100 N7        29.99F
OSKALOOSA *    FAIR      64  61  90 N6        30.03F
CENTERVILLE *  FAIR      66  66 100 CALM      30.03F
OTTUMWA        PTCLDY    67  63  87 N6        30.02F
WASHINGTON *   CLOUDY    68  66  94 N6        30.00F
$$

ABBREVIATIONS USED IN REMARKS
   TC - TEMPERATURES IN CELSIUS
  WCI - WIND CHILL INDEX
   HX - HEAT INDEX
  VSB - VISIBILITY
$$





USA.gov is the U.S. government's official web portal to all federal, state and local government web resources and services.